Year,Month,Day,Hour,Minute,Value (Times are PST for temperature in C)
2017,09,02,00,00,17.10
2017,09,02,00,01,17.10
2017,09,02,00,02,17.10
2017,09,02,00,03,17.20
2017,09,02,00,04,17.20
2017,09,02,00,05,17.20
2017,09,02,00,06,17.20
2017,09,02,00,07,17.20
2017,09,02,00,08,17.20
2017,09,02,00,09,17.20
2017,09,02,00,10,17.20
2017,09,02,00,11,17.20
2017,09,02,00,12,17.20
2017,09,02,00,13,17.20
2017,09,02,00,14,17.20
2017,09,02,00,15,17.10
2017,09,02,00,16,17.10
2017,09,02,00,17,17.10
2017,09,02,00,18,17.10
2017,09,02,00,19,17.10
2017,09,02,00,20,17.10
2017,09,02,00,21,17.10
2017,09,02,00,22,17.10
2017,09,02,00,23,17.10
2017,09,02,00,24,17.10
2017,09,02,00,25,17.10
2017,09,02,00,26,17.20
2017,09,02,00,27,17.20
2017,09,02,00,28,17.20
2017,09,02,00,29,17.20
2017,09,02,00,30,17.20
2017,09,02,00,31,17.20
2017,09,02,00,32,17.20
2017,09,02,00,33,17.20
2017,09,02,00,34,17.20
2017,09,02,00,35,17.20
2017,09,02,00,36,17.20
2017,09,02,00,37,17.20
2017,09,02,00,38,17.30
2017,09,02,00,39,17.30
2017,09,02,00,40,17.30
2017,09,02,00,41,17.30
2017,09,02,00,42,17.20
2017,09,02,00,43,17.20
2017,09,02,00,44,17.20
2017,09,02,00,45,17.20
2017,09,02,00,46,17.20
2017,09,02,00,47,17.30
2017,09,02,00,48,17.30
2017,09,02,00,49,17.30
2017,09,02,00,50,17.30
2017,09,02,00,51,17.30
2017,09,02,00,52,17.30
2017,09,02,00,53,17.30
2017,09,02,00,54,17.30
2017,09,02,00,55,17.30
2017,09,02,00,56,17.30
2017,09,02,00,57,17.30
2017,09,02,00,58,17.30
2017,09,02,00,59,17.30
2017,09,02,01,00,17.30
2017,09,02,01,01,17.30
2017,09,02,01,02,17.30
2017,09,02,01,03,17.30
2017,09,02,01,04,17.30
2017,09,02,01,05,17.30
2017,09,02,01,06,17.30
2017,09,02,01,07,17.40
2017,09,02,01,08,17.40
2017,09,02,01,09,17.40
2017,09,02,01,10,17.40
2017,09,02,01,11,17.40
2017,09,02,01,12,17.40
2017,09,02,01,13,17.40
2017,09,02,01,14,17.40
2017,09,02,01,15,17.40
2017,09,02,01,16,17.40
2017,09,02,01,17,17.40
2017,09,02,01,18,17.30
2017,09,02,01,19,17.30
2017,09,02,01,20,17.30
2017,09,02,01,21,17.30
2017,09,02,01,22,17.30
2017,09,02,01,23,17.30
2017,09,02,01,24,17.30
2017,09,02,01,25,17.30
2017,09,02,01,26,17.30
2017,09,02,01,27,17.30
2017,09,02,01,28,17.30
2017,09,02,01,29,17.20
2017,09,02,01,30,17.20
2017,09,02,01,31,17.20
2017,09,02,01,32,17.20
2017,09,02,01,33,17.20
2017,09,02,01,34,17.20
2017,09,02,01,35,17.20
2017,09,02,01,36,17.20
2017,09,02,01,37,17.20
2017,09,02,01,38,17.30
2017,09,02,01,39,17.30
2017,09,02,01,40,17.30
2017,09,02,01,41,17.30
2017,09,02,01,42,17.30
2017,09,02,01,43,17.30
2017,09,02,01,44,17.30
2017,09,02,01,45,17.30
2017,09,02,01,46,17.30
2017,09,02,01,47,17.30
2017,09,02,01,48,17.20
2017,09,02,01,49,17.20
2017,09,02,01,50,17.20
2017,09,02,01,51,17.20
2017,09,02,01,52,17.30
2017,09,02,01,53,17.30
2017,09,02,01,54,17.30
2017,09,02,01,55,17.30
2017,09,02,01,56,17.30
2017,09,02,01,57,17.30
2017,09,02,01,58,17.30
2017,09,02,01,59,17.30
2017,09,02,02,00,17.30
2017,09,02,02,01,17.30
2017,09,02,02,02,17.30
2017,09,02,02,03,17.20
2017,09,02,02,04,17.20
2017,09,02,02,05,17.20
2017,09,02,02,06,17.10
2017,09,02,02,07,17.10
2017,09,02,02,08,17.00
2017,09,02,02,09,17.00
2017,09,02,02,10,17.00
2017,09,02,02,11,16.90
2017,09,02,02,12,16.90
2017,09,02,02,13,16.90
2017,09,02,02,14,16.90
2017,09,02,02,15,16.90
2017,09,02,02,16,16.80
2017,09,02,02,17,16.90
2017,09,02,02,18,16.90
2017,09,02,02,19,16.90
2017,09,02,02,20,16.90
2017,09,02,02,21,16.90
2017,09,02,02,22,16.90
2017,09,02,02,23,16.90
2017,09,02,02,24,16.90
2017,09,02,02,25,16.90
2017,09,02,02,26,16.90
2017,09,02,02,27,16.90
2017,09,02,02,28,16.90
2017,09,02,02,29,17.00
2017,09,02,02,30,17.00
2017,09,02,02,31,17.00
2017,09,02,02,32,17.00
2017,09,02,02,33,17.00
2017,09,02,02,34,17.10
2017,09,02,02,35,17.10
2017,09,02,02,36,17.10
2017,09,02,02,37,17.10
2017,09,02,02,38,17.10
2017,09,02,02,39,17.10
2017,09,02,02,40,17.10
2017,09,02,02,41,17.10
2017,09,02,02,42,17.10
2017,09,02,02,43,17.10
2017,09,02,02,44,17.10
2017,09,02,02,45,17.00
2017,09,02,02,46,17.00
2017,09,02,02,47,17.00
2017,09,02,02,48,17.00
2017,09,02,02,49,16.90
2017,09,02,02,50,16.90
2017,09,02,02,51,16.90
2017,09,02,02,52,16.90
2017,09,02,02,53,16.90
2017,09,02,02,54,16.90
2017,09,02,02,55,16.90
2017,09,02,02,56,16.90
2017,09,02,02,57,16.90
2017,09,02,02,58,16.90
2017,09,02,02,59,16.90
2017,09,02,03,00,16.90
2017,09,02,03,01,16.90
2017,09,02,03,02,16.90
2017,09,02,03,03,16.90
2017,09,02,03,04,16.90
2017,09,02,03,05,16.80
2017,09,02,03,06,16.80
2017,09,02,03,07,16.80
2017,09,02,03,08,16.80
2017,09,02,03,09,16.90
2017,09,02,03,10,16.90
2017,09,02,03,11,16.90
2017,09,02,03,12,16.90
2017,09,02,03,13,16.90
2017,09,02,03,14,17.00
2017,09,02,03,15,17.00
2017,09,02,03,16,17.00
2017,09,02,03,17,17.00
2017,09,02,03,18,17.10
2017,09,02,03,19,17.10
2017,09,02,03,20,17.10
2017,09,02,03,21,17.10
2017,09,02,03,22,17.10
2017,09,02,03,23,17.10
2017,09,02,03,24,17.10
2017,09,02,03,25,17.10
2017,09,02,03,26,17.10
2017,09,02,03,27,17.10
2017,09,02,03,28,17.10
2017,09,02,03,29,17.10
2017,09,02,03,30,17.00
2017,09,02,03,31,17.00
2017,09,02,03,32,17.00
2017,09,02,03,33,17.00
2017,09,02,03,34,17.00
2017,09,02,03,35,16.90
2017,09,02,03,36,16.90
2017,09,02,03,37,16.90
2017,09,02,03,38,16.90
2017,09,02,03,39,16.80
2017,09,02,03,40,16.80
2017,09,02,03,41,16.80
2017,09,02,03,42,16.70
2017,09,02,03,43,16.70
2017,09,02,03,44,16.70
2017,09,02,03,45,16.70
2017,09,02,03,46,16.70
2017,09,02,03,47,16.70
2017,09,02,03,48,16.70
2017,09,02,03,49,16.60
2017,09,02,03,50,16.60
2017,09,02,03,51,16.60
2017,09,02,03,52,16.60
2017,09,02,03,53,16.60
2017,09,02,03,54,16.60
2017,09,02,03,55,16.60
2017,09,02,03,56,16.60
2017,09,02,03,57,16.60
2017,09,02,03,58,16.60
2017,09,02,03,59,16.60
2017,09,02,04,00,16.50
2017,09,02,04,01,16.40
2017,09,02,04,02,16.40
2017,09,02,04,03,16.40
2017,09,02,04,04,16.40
2017,09,02,04,05,16.40
2017,09,02,04,06,16.40
2017,09,02,04,07,16.40
2017,09,02,04,08,16.40
2017,09,02,04,09,16.30
2017,09,02,04,10,16.30
2017,09,02,04,11,16.30
2017,09,02,04,12,16.30
2017,09,02,04,13,16.30
2017,09,02,04,14,16.20
2017,09,02,04,15,16.20
2017,09,02,04,16,16.20
2017,09,02,04,17,16.20
2017,09,02,04,18,16.20
2017,09,02,04,19,16.10
2017,09,02,04,20,16.10
2017,09,02,04,21,16.10
2017,09,02,04,22,16.10
2017,09,02,04,23,16.10
2017,09,02,04,24,16.10
2017,09,02,04,25,16.10
2017,09,02,04,26,16.10
2017,09,02,04,27,16.10
2017,09,02,04,28,16.10
2017,09,02,04,29,16.10
2017,09,02,04,30,16.10
2017,09,02,04,31,16.10
2017,09,02,04,32,16.10
2017,09,02,04,33,16.10
2017,09,02,04,34,16.10
2017,09,02,04,35,16.10
2017,09,02,04,36,16.20
2017,09,02,04,37,16.20
2017,09,02,04,38,16.20
2017,09,02,04,39,16.20
2017,09,02,04,40,16.20
2017,09,02,04,41,16.20
2017,09,02,04,42,16.20
2017,09,02,04,43,16.20
2017,09,02,04,44,16.20
2017,09,02,04,45,16.20
2017,09,02,04,46,16.20
2017,09,02,04,47,16.20
2017,09,02,04,48,16.20
2017,09,02,04,49,16.20
2017,09,02,04,50,16.20
2017,09,02,04,51,16.10
2017,09,02,04,52,16.10
2017,09,02,04,53,16.20
2017,09,02,04,54,16.20
2017,09,02,04,55,16.20
2017,09,02,04,56,16.20
2017,09,02,04,57,16.20
2017,09,02,04,58,16.20
2017,09,02,04,59,16.30
2017,09,02,05,00,16.30
2017,09,02,05,01,16.30
2017,09,02,05,02,16.30
2017,09,02,05,03,16.30
2017,09,02,05,04,16.30
2017,09,02,05,05,16.30
2017,09,02,05,06,16.30
2017,09,02,05,07,16.30
2017,09,02,05,08,16.30
2017,09,02,05,09,16.30
2017,09,02,05,10,16.30
2017,09,02,05,11,16.30
2017,09,02,05,12,16.40
2017,09,02,05,13,16.40
2017,09,02,05,14,16.40
2017,09,02,05,15,16.40
2017,09,02,05,16,16.40
2017,09,02,05,17,16.40
2017,09,02,05,18,16.40
2017,09,02,05,19,16.40
2017,09,02,05,20,16.40
2017,09,02,05,21,16.40
2017,09,02,05,22,16.40
2017,09,02,05,23,16.40
2017,09,02,05,24,16.40
2017,09,02,05,25,16.40
2017,09,02,05,26,16.40
2017,09,02,05,27,16.30
2017,09,02,05,28,16.30
2017,09,02,05,29,16.30
2017,09,02,05,30,16.30
2017,09,02,05,31,16.30
2017,09,02,05,32,16.30
2017,09,02,05,33,16.30
2017,09,02,05,34,16.30
2017,09,02,05,35,16.30
2017,09,02,05,36,16.30
2017,09,02,05,37,16.30
2017,09,02,05,38,16.30
2017,09,02,05,39,16.30
2017,09,02,05,40,16.20
2017,09,02,05,41,16.20
2017,09,02,05,42,16.20
2017,09,02,05,43,16.20
2017,09,02,05,44,16.20
2017,09,02,05,45,16.20
2017,09,02,05,46,16.20
2017,09,02,05,47,16.20
2017,09,02,05,48,16.20
2017,09,02,05,49,16.30
2017,09,02,05,50,16.30
2017,09,02,05,51,16.30
2017,09,02,05,52,16.30
2017,09,02,05,53,16.30
2017,09,02,05,54,16.30
2017,09,02,05,55,16.30
2017,09,02,05,56,16.40
2017,09,02,05,57,16.40
2017,09,02,05,58,16.40
2017,09,02,05,59,16.40
2017,09,02,06,00,16.40
2017,09,02,06,01,16.40
2017,09,02,06,02,16.40
2017,09,02,06,03,16.40
2017,09,02,06,04,16.40
2017,09,02,06,05,16.50
2017,09,02,06,06,16.60
2017,09,02,06,07,16.60
2017,09,02,06,08,16.60
2017,09,02,06,09,16.60
2017,09,02,06,10,16.60
2017,09,02,06,11,16.70
2017,09,02,06,12,16.70
2017,09,02,06,13,16.70
2017,09,02,06,14,16.70
2017,09,02,06,15,16.70
2017,09,02,06,16,16.70
2017,09,02,06,17,16.70
2017,09,02,06,18,16.70
2017,09,02,06,19,16.70
2017,09,02,06,20,16.70
2017,09,02,06,21,16.70
2017,09,02,06,22,16.70
2017,09,02,06,23,16.70
2017,09,02,06,24,16.70
2017,09,02,06,25,16.70
2017,09,02,06,26,16.70
2017,09,02,06,27,16.70
2017,09,02,06,28,16.70
2017,09,02,06,29,16.70
2017,09,02,06,30,16.70
2017,09,02,06,31,16.70
2017,09,02,06,32,16.70
2017,09,02,06,33,16.70
2017,09,02,06,34,16.70
2017,09,02,06,35,16.70
2017,09,02,06,36,16.70
2017,09,02,06,37,16.70
2017,09,02,06,38,16.70
2017,09,02,06,39,16.70
2017,09,02,06,40,16.70
2017,09,02,06,41,16.70
2017,09,02,06,42,16.70
2017,09,02,06,43,16.70
2017,09,02,06,44,16.70
2017,09,02,06,45,16.70
2017,09,02,06,46,16.70
2017,09,02,06,47,16.70
2017,09,02,06,48,16.70
2017,09,02,06,49,16.70
2017,09,02,06,50,16.70
2017,09,02,06,51,16.70
2017,09,02,06,52,16.70
2017,09,02,06,53,16.70
2017,09,02,06,54,16.70
2017,09,02,06,55,16.80
2017,09,02,06,56,16.80
2017,09,02,06,57,16.80
2017,09,02,06,58,16.80
2017,09,02,06,59,16.80
2017,09,02,07,00,16.90
2017,09,02,07,01,16.90
2017,09,02,07,02,16.90
2017,09,02,07,03,16.90
2017,09,02,07,04,16.90
2017,09,02,07,05,16.90
2017,09,02,07,06,16.90
2017,09,02,07,07,16.90
2017,09,02,07,08,17.00
2017,09,02,07,09,17.00
2017,09,02,07,10,17.10
2017,09,02,07,11,17.10
2017,09,02,07,12,17.20
2017,09,02,07,13,17.20
2017,09,02,07,14,17.20
2017,09,02,07,15,17.30
2017,09,02,07,16,17.30
2017,09,02,07,17,17.30
2017,09,02,07,18,17.30
2017,09,02,07,19,17.30
2017,09,02,07,20,17.30
2017,09,02,07,21,17.30
2017,09,02,07,22,17.30
2017,09,02,07,23,17.40
2017,09,02,07,24,17.40
2017,09,02,07,25,17.40
2017,09,02,07,26,17.50
2017,09,02,07,27,17.50
2017,09,02,07,28,17.60
2017,09,02,07,29,17.70
2017,09,02,07,30,17.70
2017,09,02,07,31,17.80
2017,09,02,07,32,17.90
2017,09,02,07,33,17.90
2017,09,02,07,34,18.00
2017,09,02,07,35,18.10
2017,09,02,07,36,18.10
2017,09,02,07,37,18.20
2017,09,02,07,38,18.20
2017,09,02,07,39,18.30
2017,09,02,07,40,18.30
2017,09,02,07,41,18.40
2017,09,02,07,42,18.40
2017,09,02,07,43,18.50
2017,09,02,07,44,18.50
2017,09,02,07,45,18.60
2017,09,02,07,46,18.60
2017,09,02,07,47,18.70
2017,09,02,07,48,18.70
2017,09,02,07,49,18.70
2017,09,02,07,50,18.80
2017,09,02,07,51,18.80
2017,09,02,07,52,18.80
2017,09,02,07,53,18.90
2017,09,02,07,54,18.90
2017,09,02,07,55,18.90
2017,09,02,07,56,19.00
2017,09,02,07,57,19.10
2017,09,02,07,58,19.10
2017,09,02,07,59,19.20
2017,09,02,08,00,19.30
2017,09,02,08,01,19.40
2017,09,02,08,02,19.40
2017,09,02,08,03,19.50
2017,09,02,08,04,19.60
2017,09,02,08,05,19.70
2017,09,02,08,06,19.90
2017,09,02,08,07,20.20
2017,09,02,08,08,20.40
2017,09,02,08,09,20.60
2017,09,02,08,10,20.80
2017,09,02,08,11,21.00
2017,09,02,08,12,21.20
2017,09,02,08,13,21.40
2017,09,02,08,14,21.60
2017,09,02,08,15,21.70
2017,09,02,08,16,21.90
2017,09,02,08,17,22.00
2017,09,02,08,18,22.10
2017,09,02,08,19,22.20
2017,09,02,08,20,22.20
2017,09,02,08,21,22.30
2017,09,02,08,22,22.30
2017,09,02,08,23,22.30
2017,09,02,08,24,22.30
2017,09,02,08,25,22.30
2017,09,02,08,26,22.20
2017,09,02,08,27,22.10
2017,09,02,08,28,22.10
2017,09,02,08,29,22.00
2017,09,02,08,30,21.90
2017,09,02,08,31,21.70
2017,09,02,08,32,21.60
2017,09,02,08,33,21.60
2017,09,02,08,34,21.50
2017,09,02,08,35,21.40
2017,09,02,08,36,21.40
2017,09,02,08,37,21.40
2017,09,02,08,38,21.30
2017,09,02,08,39,21.30
2017,09,02,08,40,21.20
2017,09,02,08,41,21.20
2017,09,02,08,42,21.10
2017,09,02,08,43,21.10
2017,09,02,08,44,21.10
2017,09,02,08,45,21.10
2017,09,02,08,46,21.10
2017,09,02,08,47,21.10
2017,09,02,08,48,21.10
2017,09,02,08,49,21.10
2017,09,02,08,50,21.00
2017,09,02,08,51,21.10
2017,09,02,08,52,21.10
2017,09,02,08,53,21.20
2017,09,02,08,54,21.30
2017,09,02,08,55,21.40
2017,09,02,08,56,21.50
2017,09,02,08,57,21.60
2017,09,02,08,58,21.60
2017,09,02,08,59,21.60
2017,09,02,09,00,21.70
2017,09,02,09,01,21.80
2017,09,02,09,02,21.80
2017,09,02,09,03,21.80
2017,09,02,09,04,21.80
2017,09,02,09,05,21.90
2017,09,02,09,06,21.80
2017,09,02,09,07,21.80
2017,09,02,09,08,21.80
2017,09,02,09,09,21.60
2017,09,02,09,10,21.60
2017,09,02,09,11,21.60
2017,09,02,09,12,21.40
2017,09,02,09,13,21.40
2017,09,02,09,14,21.50
2017,09,02,09,15,21.60
2017,09,02,09,16,21.60
2017,09,02,09,17,21.60
2017,09,02,09,18,21.60
2017,09,02,09,19,21.60
2017,09,02,09,20,21.60
2017,09,02,09,21,21.60
2017,09,02,09,22,21.60
2017,09,02,09,23,21.60
2017,09,02,09,24,21.60
2017,09,02,09,25,21.60
2017,09,02,09,26,21.60
2017,09,02,09,27,21.60
2017,09,02,09,28,21.70
2017,09,02,09,29,21.70
2017,09,02,09,30,21.70
2017,09,02,09,31,21.80
2017,09,02,09,32,21.90
2017,09,02,09,33,22.00
2017,09,02,09,34,22.10
2017,09,02,09,35,22.20
2017,09,02,09,36,22.30
2017,09,02,09,37,22.30
2017,09,02,09,38,22.50
2017,09,02,09,39,22.50
2017,09,02,09,40,22.60
2017,09,02,09,41,22.60
2017,09,02,09,42,22.70
2017,09,02,09,43,22.80
2017,09,02,09,44,22.70
2017,09,02,09,45,22.60
2017,09,02,09,46,22.40
2017,09,02,09,47,22.30
2017,09,02,09,48,22.30
2017,09,02,09,49,22.30
2017,09,02,09,50,22.40
2017,09,02,09,51,22.40
2017,09,02,09,52,22.50
2017,09,02,09,53,22.50
2017,09,02,09,54,22.50
2017,09,02,09,55,22.50
2017,09,02,09,56,22.50
2017,09,02,09,57,22.50
2017,09,02,09,58,22.50
2017,09,02,09,59,22.50
2017,09,02,10,00,22.60
2017,09,02,10,01,22.70
2017,09,02,10,02,22.70
2017,09,02,10,03,22.80
2017,09,02,10,04,22.90
2017,09,02,10,05,22.90
2017,09,02,10,06,23.00
2017,09,02,10,07,22.90
2017,09,02,10,08,22.90
2017,09,02,10,09,22.90
2017,09,02,10,10,22.90
2017,09,02,10,11,22.90
2017,09,02,10,12,22.80
2017,09,02,10,13,22.70
2017,09,02,10,14,22.60
2017,09,02,10,15,22.50
2017,09,02,10,16,22.40
2017,09,02,10,17,22.30
2017,09,02,10,18,22.30
2017,09,02,10,19,22.20
2017,09,02,10,20,22.20
2017,09,02,10,21,22.20
2017,09,02,10,22,22.20
2017,09,02,10,23,22.20
2017,09,02,10,24,22.20
2017,09,02,10,25,22.20
2017,09,02,10,26,22.20
2017,09,02,10,27,22.30
2017,09,02,10,28,22.40
2017,09,02,10,29,22.50
2017,09,02,10,30,22.60
2017,09,02,10,31,22.60
2017,09,02,10,32,22.60
2017,09,02,10,33,22.70
2017,09,02,10,34,22.70
2017,09,02,10,35,22.80
2017,09,02,10,36,22.90
2017,09,02,10,37,22.90
2017,09,02,10,38,22.90
2017,09,02,10,39,23.00
2017,09,02,10,40,23.10
2017,09,02,10,41,23.20
2017,09,02,10,42,23.30
2017,09,02,10,43,23.30
2017,09,02,10,44,23.30
2017,09,02,10,45,23.20
2017,09,02,10,46,23.20
2017,09,02,10,47,23.20
2017,09,02,10,48,23.20
2017,09,02,10,49,23.20
2017,09,02,10,50,23.30
2017,09,02,10,51,23.30
2017,09,02,10,52,23.30
2017,09,02,10,53,23.30
2017,09,02,10,54,23.40
2017,09,02,10,55,23.40
2017,09,02,10,56,23.50
2017,09,02,10,57,23.60
2017,09,02,10,58,23.70
2017,09,02,10,59,23.70
2017,09,02,11,00,23.70
2017,09,02,11,01,23.80
2017,09,02,11,02,23.80
2017,09,02,11,03,23.80
2017,09,02,11,04,23.80
2017,09,02,11,05,23.70
2017,09,02,11,06,23.70
2017,09,02,11,07,23.70
2017,09,02,11,08,23.70
2017,09,02,11,09,23.70
2017,09,02,11,10,23.80
2017,09,02,11,11,23.80
2017,09,02,11,12,23.70
2017,09,02,11,13,23.70
2017,09,02,11,14,23.60
2017,09,02,11,15,23.60
2017,09,02,11,16,23.60
2017,09,02,11,17,23.60
2017,09,02,11,18,23.50
2017,09,02,11,19,23.40
2017,09,02,11,20,23.50
2017,09,02,11,21,23.60
2017,09,02,11,22,23.60
2017,09,02,11,23,23.70
2017,09,02,11,24,23.70
2017,09,02,11,25,23.70
2017,09,02,11,26,23.80
2017,09,02,11,27,23.80
2017,09,02,11,28,23.90
2017,09,02,11,29,24.10
2017,09,02,11,30,24.10
2017,09,02,11,31,24.20
2017,09,02,11,32,24.30
2017,09,02,11,33,24.30
2017,09,02,11,34,24.50
2017,09,02,11,35,24.50
2017,09,02,11,36,24.50
2017,09,02,11,37,24.50
2017,09,02,11,38,24.50
2017,09,02,11,39,24.50
2017,09,02,11,40,24.50
2017,09,02,11,41,24.50
2017,09,02,11,42,24.50
2017,09,02,11,43,24.40
2017,09,02,11,44,24.30
2017,09,02,11,45,24.30
2017,09,02,11,46,24.30
2017,09,02,11,47,24.30
2017,09,02,11,48,24.30
2017,09,02,11,49,24.30
2017,09,02,11,50,24.30
2017,09,02,11,51,24.20
2017,09,02,11,52,24.20
2017,09,02,11,53,24.20
2017,09,02,11,54,24.10
2017,09,02,11,55,24.10
2017,09,02,11,56,24.10
2017,09,02,11,57,24.10
2017,09,02,11,58,24.10
2017,09,02,11,59,24.10
2017,09,02,12,00,24.10
2017,09,02,12,01,24.10
2017,09,02,12,02,24.30
2017,09,02,12,03,24.40
2017,09,02,12,04,24.40
2017,09,02,12,05,24.40
2017,09,02,12,06,24.40
2017,09,02,12,07,24.50
2017,09,02,12,08,24.50
2017,09,02,12,09,24.50
2017,09,02,12,10,24.40
2017,09,02,12,11,24.50
2017,09,02,12,12,24.50
2017,09,02,12,13,24.50
2017,09,02,12,14,24.60
2017,09,02,12,15,24.60
2017,09,02,12,16,24.60
2017,09,02,12,17,24.70
2017,09,02,12,18,24.80
2017,09,02,12,19,24.90
2017,09,02,12,20,24.90
2017,09,02,12,21,24.80
2017,09,02,12,22,24.80
2017,09,02,12,23,24.70
2017,09,02,12,24,24.70
2017,09,02,12,25,24.60
2017,09,02,12,26,24.60
2017,09,02,12,27,24.70
2017,09,02,12,28,24.70
2017,09,02,12,29,24.70
2017,09,02,12,30,24.70
2017,09,02,12,31,24.70
2017,09,02,12,32,24.70
2017,09,02,12,33,24.70
2017,09,02,12,34,24.70
2017,09,02,12,35,24.80
2017,09,02,12,36,25.00
2017,09,02,12,37,25.10
2017,09,02,12,38,25.20
2017,09,02,12,39,25.30
2017,09,02,12,40,25.30
2017,09,02,12,41,25.40
2017,09,02,12,42,25.40
2017,09,02,12,43,25.40
2017,09,02,12,44,25.40
2017,09,02,12,45,25.30
2017,09,02,12,46,25.40
2017,09,02,12,47,25.40
2017,09,02,12,48,25.50
2017,09,02,12,49,25.60
2017,09,02,12,50,25.60
2017,09,02,12,51,25.60
2017,09,02,12,52,25.70
2017,09,02,12,53,25.80
2017,09,02,12,54,25.90
2017,09,02,12,55,25.90
2017,09,02,12,56,25.90
2017,09,02,12,57,25.90
2017,09,02,12,58,26.00
2017,09,02,12,59,26.00
2017,09,02,13,00,26.00
2017,09,02,13,01,26.00
2017,09,02,13,02,26.00
2017,09,02,13,03,26.10
2017,09,02,13,04,26.10
2017,09,02,13,05,26.20
2017,09,02,13,06,26.20
2017,09,02,13,07,26.40
2017,09,02,13,08,26.50
2017,09,02,13,09,26.60
2017,09,02,13,10,26.80
2017,09,02,13,11,26.90
2017,09,02,13,12,27.00
2017,09,02,13,13,27.20
2017,09,02,13,14,27.30
2017,09,02,13,15,27.30
2017,09,02,13,16,27.30
2017,09,02,13,17,27.30
2017,09,02,13,18,27.40
2017,09,02,13,19,27.50
2017,09,02,13,20,27.60
2017,09,02,13,21,27.70
2017,09,02,13,22,27.70
2017,09,02,13,23,27.80
2017,09,02,13,24,27.80
2017,09,02,13,25,27.90
2017,09,02,13,26,27.90
2017,09,02,13,27,27.90
2017,09,02,13,28,27.90
2017,09,02,13,29,27.80
2017,09,02,13,30,27.80
2017,09,02,13,31,27.80
2017,09,02,13,32,27.70
2017,09,02,13,33,27.70
2017,09,02,13,34,27.70
2017,09,02,13,35,27.70
2017,09,02,13,36,27.70
2017,09,02,13,37,27.60
2017,09,02,13,38,27.50
2017,09,02,13,39,27.40
2017,09,02,13,40,27.30
2017,09,02,13,41,27.30
2017,09,02,13,42,27.30
2017,09,02,13,43,27.30
2017,09,02,13,44,27.30
2017,09,02,13,45,27.30
2017,09,02,13,46,27.30
2017,09,02,13,47,27.30
2017,09,02,13,48,27.30
2017,09,02,13,49,27.30
2017,09,02,13,50,27.30
2017,09,02,13,51,27.40
2017,09,02,13,52,27.40
2017,09,02,13,53,27.40
2017,09,02,13,54,27.40
2017,09,02,13,55,27.50
2017,09,02,13,56,27.60
2017,09,02,13,57,27.70
2017,09,02,13,58,27.70
2017,09,02,13,59,27.80
2017,09,02,14,00,27.80
2017,09,02,14,01,27.90
2017,09,02,14,02,28.00
2017,09,02,14,03,28.00
2017,09,02,14,04,28.10
2017,09,02,14,05,28.30
2017,09,02,14,06,28.30
2017,09,02,14,07,28.20
2017,09,02,14,08,28.10
2017,09,02,14,09,28.10
2017,09,02,14,10,28.20
2017,09,02,14,11,28.20
2017,09,02,14,12,28.30
2017,09,02,14,13,28.30
2017,09,02,14,14,28.20
2017,09,02,14,15,28.30
2017,09,02,14,16,28.30
2017,09,02,14,17,28.20
2017,09,02,14,18,28.30
2017,09,02,14,19,28.20
2017,09,02,14,20,28.10
2017,09,02,14,21,28.00
2017,09,02,14,22,27.90
2017,09,02,14,23,27.80
2017,09,02,14,24,27.80
2017,09,02,14,25,27.80
2017,09,02,14,26,27.80
2017,09,02,14,27,27.70
2017,09,02,14,28,27.70
2017,09,02,14,29,27.70
2017,09,02,14,30,27.80
2017,09,02,14,31,27.80
2017,09,02,14,32,27.80
2017,09,02,14,33,27.80
2017,09,02,14,34,27.80
2017,09,02,14,35,27.70
2017,09,02,14,36,27.70
2017,09,02,14,37,27.70
2017,09,02,14,38,27.70
2017,09,02,14,39,27.80
2017,09,02,14,40,27.80
2017,09,02,14,41,27.80
2017,09,02,14,42,27.80
2017,09,02,14,43,27.90
2017,09,02,14,44,27.90
2017,09,02,14,45,27.90
2017,09,02,14,46,28.00
2017,09,02,14,47,28.00
2017,09,02,14,48,28.00
2017,09,02,14,49,28.00
2017,09,02,14,50,28.00
2017,09,02,14,51,28.10
2017,09,02,14,52,28.10
2017,09,02,14,53,28.10
2017,09,02,14,54,28.00
2017,09,02,14,55,28.00
2017,09,02,14,56,28.00
2017,09,02,14,57,28.00
2017,09,02,14,58,28.00
2017,09,02,14,59,28.00
2017,09,02,15,00,28.00
2017,09,02,15,01,28.00
2017,09,02,15,02,28.00
2017,09,02,15,03,28.00
2017,09,02,15,04,28.00
2017,09,02,15,05,27.90
2017,09,02,15,06,27.80
2017,09,02,15,07,27.70
2017,09,02,15,08,27.50
2017,09,02,15,09,27.40
2017,09,02,15,10,27.30
2017,09,02,15,11,27.30
2017,09,02,15,12,27.30
2017,09,02,15,13,27.30
2017,09,02,15,14,27.30
2017,09,02,15,15,27.30
2017,09,02,15,16,27.30
2017,09,02,15,17,27.30
2017,09,02,15,18,27.30
2017,09,02,15,19,27.20
2017,09,02,15,20,27.20
2017,09,02,15,21,27.20
2017,09,02,15,22,27.20
2017,09,02,15,23,27.20
2017,09,02,15,24,27.10
2017,09,02,15,25,27.10
2017,09,02,15,26,27.10
2017,09,02,15,27,27.10
2017,09,02,15,28,27.10
2017,09,02,15,29,27.20
2017,09,02,15,30,27.20
2017,09,02,15,31,27.30
2017,09,02,15,32,27.30
2017,09,02,15,33,27.40
2017,09,02,15,34,27.50
2017,09,02,15,35,27.60
2017,09,02,15,36,27.60
2017,09,02,15,37,27.70
2017,09,02,15,38,27.70
2017,09,02,15,39,27.70
2017,09,02,15,40,27.70
2017,09,02,15,41,27.80
2017,09,02,15,42,27.80
2017,09,02,15,43,27.80
2017,09,02,15,44,27.80
2017,09,02,15,45,27.90
2017,09,02,15,46,27.90
2017,09,02,15,47,27.90
2017,09,02,15,48,27.90
2017,09,02,15,49,27.90
2017,09,02,15,50,27.90
2017,09,02,15,51,28.00
2017,09,02,15,52,28.00
2017,09,02,15,53,27.90
2017,09,02,15,54,27.90
2017,09,02,15,55,27.80
2017,09,02,15,56,27.80
2017,09,02,15,57,27.70
2017,09,02,15,58,27.70
2017,09,02,15,59,27.70
2017,09,02,16,00,27.60
2017,09,02,16,01,27.50
2017,09,02,16,02,27.40
2017,09,02,16,03,27.40
2017,09,02,16,04,27.40
2017,09,02,16,05,27.40
2017,09,02,16,06,27.40
2017,09,02,16,07,27.40
2017,09,02,16,08,27.50
2017,09,02,16,09,27.60
2017,09,02,16,10,27.60
2017,09,02,16,11,27.60
2017,09,02,16,12,27.60
2017,09,02,16,13,27.70
2017,09,02,16,14,27.70
2017,09,02,16,15,27.80
2017,09,02,16,16,27.80
2017,09,02,16,17,27.80
2017,09,02,16,18,27.80
2017,09,02,16,19,27.80
2017,09,02,16,20,27.80
2017,09,02,16,21,27.90
2017,09,02,16,22,28.00
2017,09,02,16,23,28.00
2017,09,02,16,24,28.00
2017,09,02,16,25,28.00
2017,09,02,16,26,28.00
2017,09,02,16,27,28.00
2017,09,02,16,28,28.00
2017,09,02,16,29,28.00
2017,09,02,16,30,28.00
2017,09,02,16,31,28.00
2017,09,02,16,32,28.00
2017,09,02,16,33,28.10
2017,09,02,16,34,28.00
2017,09,02,16,35,28.00
2017,09,02,16,36,27.90
2017,09,02,16,37,27.80
2017,09,02,16,38,27.80
2017,09,02,16,39,27.70
2017,09,02,16,40,27.70
2017,09,02,16,41,27.70
2017,09,02,16,42,27.70
2017,09,02,16,43,27.70
2017,09,02,16,44,27.60
2017,09,02,16,45,27.60
2017,09,02,16,46,27.60
2017,09,02,16,47,27.60
2017,09,02,16,48,27.60
2017,09,02,16,49,27.60
2017,09,02,16,50,27.60
2017,09,02,16,51,27.50
2017,09,02,16,52,27.40
2017,09,02,16,53,27.30
2017,09,02,16,54,27.30
2017,09,02,16,55,27.20
2017,09,02,16,56,27.20
2017,09,02,16,57,27.20
2017,09,02,16,58,27.20
2017,09,02,16,59,27.20
2017,09,02,17,00,27.20
2017,09,02,17,01,27.20
2017,09,02,17,02,27.20
2017,09,02,17,03,27.10
2017,09,02,17,04,27.10
2017,09,02,17,05,27.10
2017,09,02,17,06,27.10
2017,09,02,17,07,27.00
2017,09,02,17,08,26.90
2017,09,02,17,09,26.90
2017,09,02,17,10,26.90
2017,09,02,17,11,26.90
2017,09,02,17,12,26.90
2017,09,02,17,13,26.90
2017,09,02,17,14,26.90
2017,09,02,17,15,26.90
2017,09,02,17,16,26.90
2017,09,02,17,17,26.80
2017,09,02,17,18,26.80
2017,09,02,17,19,26.80